SQ2WB-13 Weather Reports


time (UTC)temp
C
wind
direction
speed
KPH
gust
KPH
rain 1hr
cm
rain 24hr
cm
rain mn
cm
humidity
%
barometer
mb
20260507001502 8 38 1.6 4.8 0.00 0.00 0.00 91 999.3
20260507000002 8 353 4.8 8.0 0.00 0.00 0.00 92 999.3
20260506234501 8 87 0.0 1.6 0.00 0.00 0.00 90 999.3
20260506233001 8 57 1.6 1.6 0.00 0.00 0.00 89 999.3
20260506231501 8 93 1.6 4.8 0.00 0.00 0.00 88 999.6
20260506230001 10 100 3.2 3.2 0.00 0.00 0.00 87 999.6
20260506224502 10 74 0.0 1.6 0.00 0.00 0.00 87 1000.0
20260506223001 10 90 0.0 1.6 0.00 0.00 0.00 87 999.6
20260506221502 10 77 4.8 6.4 0.00 0.00 0.00 88 998.9
20260506220003 10 42 6.4 11.3 0.00 0.00 0.00 90 998.9
20260506214502 10 111 1.6 1.6 0.00 0.00 0.00 89 998.3
20260506213001 10 63 4.8 4.8 0.00 0.00 0.00 90 998.3
20260506211502 10 356 3.2 4.8 0.00 0.00 0.00 89 997.9
20260506210001 11 44 4.8 6.4 0.00 0.00 0.00 89 997.9
20260506204501 11 90 4.8 4.8 0.00 0.00 0.00 89 997.9
20260506203001 11 33 1.6 3.2 0.00 0.00 0.00 89 997.6
20260506201501 12 90 0.0 0.0 0.00 0.00 0.00 87 997.9
20260506200001 12 127 0.0 0.0 0.00 0.00 0.00 87 997.9
20260506194501 12 188 1.6 4.8 0.00 0.00 0.00 85 997.6
20260506193001 13 175 1.6 1.6 0.00 0.00 0.00 85 997.6
20260506191501 13 235 1.6 1.6 0.00 0.00 0.00 83 997.6
20260506190001 13 151 1.6 4.8 0.00 0.00 0.00 81 997.2
20260506184501 15 117 1.6 1.6 0.00 0.00 0.00 81 997.2
20260506183002 15 285 3.2 4.8 0.00 0.00 0.00 79 997.2
20260506181502 15 174 6.4 9.7 0.00 0.00 0.00 76 997.2
20260506180002 16 144 0.0 0.0 0.00 0.00 0.00 75 996.9
20260506174501 17 160 1.6 1.6 0.00 0.00 0.00 70 996.9
20260506173002 18 166 3.2 4.8 0.00 0.00 0.00 67 996.6
20260506171501 20 116 1.6 1.6 0.00 0.00 0.00 64 996.6
20260506170002 20 201 4.8 8.0 0.00 0.00 0.00 63 996.2
20260506164500 20 125 1.6 4.8 0.00 0.00 0.00 62 996.2
20260506163002 20 182 3.2 3.2 0.00 0.00 0.00 61 996.2
20260506161501 20 219 8.0 9.7 0.00 0.00 0.00 62 996.2
20260506160002 21 126 4.8 6.4 0.00 0.00 0.00 59 996.2
20260506154501 21 191 6.4 6.4 0.00 0.00 0.00 58 996.2
20260506153001 21 139 3.2 3.2 0.00 0.00 0.00 57 996.2
20260506151502 20 203 8.0 8.0 0.00 0.00 0.00 61 996.2
20260506150002 20 227 4.8 6.4 0.00 0.00 0.00 60 996.2
20260506144501 20 161 1.6 4.8 0.00 0.00 0.00 60 996.2
20260506143002 20 146 9.7 9.7 0.00 0.00 0.00 59 996.2
20260506141501 20 227 8.0 8.0 0.00 0.00 0.00 60 996.2
20260506140001 20 176 6.4 6.4 0.00 0.00 0.00 61 996.6
20260506134501 20 152 3.2 8.0 0.00 0.00 0.00 61 996.6
20260506133001 20 195 9.7 9.7 0.00 0.00 0.00 62 996.6
20260506131502 18 219 4.8 8.0 0.00 0.00 0.00 62 996.6
20260506130001 18 166 4.8 9.7 0.00 0.00 0.00 63 996.6
20260506124501 20 186 3.2 4.8 0.00 0.00 0.00 61 996.6
20260506123002 18 160 11.3 17.7 0.00 0.00 0.00 62 996.9
20260506121500 18 192 6.4 9.7 0.00 0.00 0.00 61 996.6
20260506120001 20 201 8.0 12.9 0.00 0.00 0.00 59 996.9
20260506114502 18 245 8.0 12.9 0.00 0.00 0.00 63 996.6
20260506113001 18 188 4.8 12.9 0.00 0.00 0.00 63 996.6
20260506111502 18 208 6.4 20.9 0.00 0.00 0.00 61 996.2
20260506110001 20 223 16.1 20.9 0.00 0.00 0.00 61 996.2
20260506104502 20 214 4.8 9.7 0.00 0.00 0.00 62 996.2
20260506103001 18 154 9.7 14.5 0.00 0.00 0.00 61 996.2
20260506101502 20 196 4.8 9.7 0.00 0.00 0.00 61 995.6
20260506100003 18 201 9.7 11.3 0.00 0.00 0.00 61 995.6
20260506094501 18 170 1.6 3.2 0.00 0.00 0.00 61 995.6
20260506093001 17 251 6.4 6.4 0.00 0.00 0.00 62 995.6
20260506091502 17 185 4.8 4.8 0.00 0.00 0.00 63 995.6
20260506090002 16 166 4.8 4.8 0.00 0.00 0.00 66 995.6
20260506084502 16 138 3.2 4.8 0.00 0.00 0.00 67 995.2
20260506083002 16 189 3.2 3.2 0.00 0.00 0.00 63 995.2
20260506081501 16 199 6.4 6.4 0.00 0.00 0.00 65 995.2
20260506073001 16 108 0.0 0.0 0.00 0.00 0.00 65 995.2
20260506071501 16 167 1.6 3.2 0.00 0.00 0.00 66 994.9
20260506061501 13 69 1.6 1.6 0.00 0.00 0.00 78 995.6
20260506044501 10 83 4.8 6.4 0.00 0.00 0.00 90 996.2
20260506043002 10 89 4.8 6.4 0.00 0.00 0.00 92 996.6
20260506041503 10 49 1.6 1.6 0.00 0.00 0.00 94 996.9
20260506040004 10 89 3.2 6.4 0.00 0.00 0.00 96 997.2
20260506034502 10 90 3.2 3.2 0.00 0.00 0.00 96 997.2
20260506033002 10 70 1.6 3.2 0.00 0.00 0.00 97 997.2
20260506031501 10 81 1.6 1.6 0.00 0.00 0.00 97 997.2
20260506030001 10 75 1.6 3.2 0.00 0.00 0.00 97 997.2
20260506024501 10 81 1.6 3.2 0.00 0.00 0.00 96 997.2
20260506023002 10 91 0.0 0.0 0.00 0.00 0.00 96 997.2
20260506021502 10 78 3.2 3.2 0.00 0.00 0.00 95 997.2
20260506020001 10 82 3.2 3.2 0.00 0.00 0.00 95 997.6
20260506014501 10 37 4.8 4.8 0.00 0.00 0.00 94 997.6
20260506013001 10 102 3.2 4.8 0.00 0.00 0.00 94 997.6
20260506011501 10 83 4.8 4.8 0.00 0.00 0.00 94 997.9
20260506010001 10 88 3.2 8.0 0.00 0.00 0.00 94 998.3
20260506004503 10 41 3.2 4.8 0.00 0.00 0.00 94 997.9
20260506003002 10 80 1.6 4.8 0.00 0.00 0.00 95 997.9